Voltar ao catálogo

CZ-6A DEB

AtivoPO
NORAD 61467·DEBRIS·🇨🇳 China

Lançado Aug 6, 2024 de Taiyuan Satellite Launch Center

Loading…

Próximas Passagens (próximas 24 horas)

TLE

AtualizadoSource: Space-Track

Época: Sep 14, 2026, 17:09 UTC

1 61467U 24140ZZ  26257.71488380  .00000501  00000-0  13328-3 0  9992
2 61467  88.8631 248.2872 0081276 297.8627  61.4360 14.45122500107088

Acompanhe CZ-6A DEB em tempo real com AllMySat

Download on the App Store